Lid_Strength_Index
13 14 8 4 2 -0 -1 -2 -2 -2 -2 -2 -2 -2 -2 -2 -2 -2 -2 -2 -2 -2 -2 -2 -2 -1 -1 -1 -1 -1 -1 -1 -1 -1 -1 -1 -1 -1 -1 -1 -2 -1 -1
12 13 8 4 2 1 0 -1 -1 -2 -2 -2 -2 -2 -2 -2 -2 -2 -2 -2 -2 -2 -2 -2 -2 -1 -1 -1 -1 -1 -1 -1 -1 -1 -1 -1 -1 -1 -1 -1 -1 -1 -1
12 13 12 4 3 2 1 -0 -0 -1 -2 -2 -2 -2 -2 -2 -2 -2 -2 -2 -2 -1 -1 -1 -2 -1 -1 -1 -1 -1 -1 -1 -1 -1 -1 -0 -0 -1 -1 -1 -1 -1 -1
13 13 14 5 4 3 2 1 1 -0 -0 -1 -1 -1 -2 -2 -2 -2 -2 -2 -1 -1 -1 -1 -1 -1 -1 -2 -2 -1 -1 -2 -1 -1 -0 -0 -1 -1 -1 -1 -1 -1 -1
15 14 13 6 5 4 3 2 2 1 1 0 -0 -0 -1 -1 -2 -2 -2 -2 -1 -1 -1 -1 -1 -1 -2 -2 -2 -1 -1 -2 -1 -1 -0 -0 0 -1 -1 -1 -1 -1 -1
15 16 14 8 7 5 4 4 3 3 2 1 1 1 1 -0 -1 -1 -2 -1 -2 -1 -1 -1 -1 -2 -2 -2 -1 -1 -1 -1 -1 -0 1 0 -0 -1 -2 -1 -1 -1 -1
17 16 16 11 9 7 6 5 4 4 3 3 3 2 2 1 1 0 -0 -0 -1 -1 -1 -1 -1 -1 -2 -2 -1 -1 -1 -1 -0 0 0 0 0 -2 -2 -1 -1 -1 -1
17 16 16 14 11 10 7 6 6 5 4 5 4 4 4 3 3 2 2 1 -0 -1 -1 -1 -1 -1 -1 -1 -1 -2 -1 -0 -0 -0 -0 0 -0 -2 -2 -2 -2 -1 -1
17 17 17 16 14 12 10 8 7 6 6 6 6 6 5 6 5 5 4 3 2 0 -1 -1 -1 -1 -1 -1 -2 -1 -1 -0 0 -0 -0 -0 -1 -2 -2 -2 -2 -2 -1
17 17 18 17 17 16 15 10 9 9 8 8 7 7 8 9 8 7 7 6 4 2 2 0 -1 -1 -2 -2 -2 -1 -0 0 0 -0 -0 -0 -1 -2 -2 -2 -2 -1 -1
17 17 17 17 17 16 15 14 12 10 9 9 10 9 11 12 12 11 9 8 6 5 4 2 2 -0 -1 -0 -1 -1 0 0 -0 0 0 -0 -1 -1 -1 -2 -2 -2 -2
19 18 18 18 18 17 15 16 15 14 14 13 13 13 13 13 12 12 11 10 9 8 7 5 4 3 1 1 1 -0 0 1 1 0 0 -1 -1 -1 -1 -2 -2 -2 -2
19 19 18 18 18 18 18 17 16 16 15 15 14 14 14 14 14 14 13 13 12 11 11 10 9 7 6 3 0 1 0 0 0 1 -0 -1 -1 -1 -1 -1 -1 -2 -2
20 19 18 19 19 18 18 18 17 17 16 16 15 16 16 15 15 15 15 14 13 13 13 12 10 9 7 6 2 0 0 1 -0 -0 -0 0 -1 -1 -1 -1 -1 -1 -2
21 20 19 19 19 19 19 18 18 18 17 17 16 17 16 16 17 16 15 14 14 14 13 12 11 9 8 7 5 -0 -0 1 0 -0 -0 1 -0 -1 -1 -1 -1 -1 -1
20 20 20 19 20 19 20 20 19 18 18 17 17 18 17 17 18 17 16 15 15 15 13 12 11 11 10 8 7 5 0 0 0 0 0 -0 0 -0 -1 -1 -2 -1 -1
21 20 20 20 20 20 20 20 19 19 18 18 17 18 18 17 18 18 17 16 16 15 14 13 12 11 10 10 8 7 4 1 2 2 2 2 2 1 1 -1 -1 -1 -1
21 21 20 20 20 20 21 21 20 20 19 18 18 19 18 18 18 18 17 17 16 15 15 15 14 13 12 11 10 9 7 2 3 3 4 3 2 2 2 0 -1 -1 -1
22 21 21 21 21 21 21 21 20 20 20 20 20 20 19 19 18 18 18 17 16 16 16 16 16 14 14 12 10 9 8 5 3 3 3 3 2 3 3 1 0 0 -1
22 22 21 21 21 21 21 21 21 21 21 20 21 20 20 19 19 18 19 18 17 17 18 17 17 16 15 12 12 10 8 5 4 4 4 3 3 4 4 2 2 -0 1
23 23 23 22 22 22 23 23 23 24 22 22 21 21 21 20 20 20 20 19 18 19 19 18 17 17 16 14 13 12 9 7 5 4 4 4 4 4 4 3 2 -1 -0
23 23 23 22 22 22 22 23 23 24 22 22 22 22 22 21 20 20 21 20 19 20 20 20 18 18 17 17 16 14 11 6 7 6 5 5 5 5 4 4 2 0 -0
24 24 23 23 23 23 25 23 23 23 23 23 24 23 23 22 21 21 21 21 21 20 20 20 19 19 20 17 17 16 14 13 13 8 7 7 7 7 6 5 4 2 -0
24 25 24 24 23 24 25 28 28 27 26 25 25 24 24 23 23 21 21 21 21 20 21 20 20 20 19 20 17 15 15 15 15 15 10 8 8 7 7 6 5 3 2
23 26 28 27 26 26 29 29 32 29 29 27 26 26 25 24 23 22 21 22 22 21 21 21 20 20 20 20 19 18 17 15 14 15 15 10 9 7 7 6 5 5 3
27 26 26 26 27 27 28 30 30 34 32 29 28 28 26 26 24 23 23 23 22 22 22 21 20 20 19 19 18 17 16 16 16 15 16 14 13 10 7 8 7 5 4